Content
SEND FEEDBACK

Daily
Averages
Monthly
Summary
Canada

AMHERST, NOVA SCOTIA


Home > North America > Canada > Nova Scotia
Elevation: 66 feet     Latitude: 45 46N     Longitude: 064 15W

WEATHER
 
SELECT A DAY
Number of Records: 96,598;   Date Range: 6/19/04 - 7/11/14
 
SHARE

PRINT THIS DATA

[ ← Previous Day ]
WEATHER ALMANAC - JULY 16, 2013
[ Next Day → ]
[ °C ]   °F
Weather ElementAverageHighLow
Temperature69.7 °F77.5 °F (12:00 pm)61.3 °F (11:00 pm)
Dewpoint57.3 °F64.4 °F (9:00 am)50 °F (7:00 pm)
Humidity65.9 %93 % (6:00 am)34 % (3:00 pm)
Barometer30.11 in30.20 in (11:00 pm)30.01 in (1:00 am)
Wind Speed7 mph16.1 mph (1:00 pm)
Wind Gust23 mph (3:00 pm)
Weather ElementAverage
Wind DirectionENE (83.5 °)

Weather ElementTotal
Precipitation---
Cooling Degree Days4.4 (Base 65)
Growing Degree Days19.4 (Base 50)
Averaged from 27 records on July 16, 2013
WEATHER CONDITIONS BREAKOUT
WIND DIRECTION BREAKOUT
WEATHER BY HOUR - JULY 16, 2013
[ °C ]   °F
Local TimeTemperatureDewpointHumidityBarometerVisibilityWind DirectionWind SpeedGust SpeedPrecipitationEventsConditions
1:00 AM66.4 °F61.0 °F83 %30.01 inNNE (30°)3.5 mph
2:00 AM65.7 °F60.8 °F84 %30.02 inNNW (340°)2.3 mph
3:00 AM65.0 °F61.0 °F82 %30.02 inCalm
3:00 AM65.3 °F60.8 °F85 %30.02 inCalm
4:00 AM63.7 °F60.3 °F89 %30.01 inNNE (20°)2.3 mph
5:00 AM62.8 °F60.3 °F91 %30.01 inNorth (360°)1.2 mph
6:00 AM62.2 °F60.3 °F93 %30.04 inNorth (350°)1.2 mph
7:00 AM64.6 °F61.9 °F91 %30.05 inNorth (350°)2.3 mph
8:00 AM67.8 °F64.2 °F88 %30.08 inNorth (10°)4.6 mph
9:00 AM71.0 °F64.0 °F74 %30.08 inNorth (10°)6.9 mph
9:00 AM71.1 °F64.4 °F79 %30.08 inNorth (10°)6.9 mph
10:00 AM71.8 °F62.8 °F73 %30.10 inNorth (10°)11.5 mph
11:00 AM73.6 °F60.4 °F63 %30.12 inNNE (20°)12.7 mph19.6 mph
12:00 PM77.5 °F62.2 °F59 %30.13 inNE (40°)9.2 mph
1:00 PM77.4 °F59.9 °F55 %30.13 inNNE (20°)16.1 mph
2:00 PM77.4 °F54.3 °F45 %30.13 inNorth (10°)15.0 mph
3:00 PM77.0 °F54.0 °F34 %30.13 inNNE (20°)16.1 mph
3:00 PM77.4 °F53.8 °F44 %30.13 inNNE (20°)16.1 mph23.0 mph
4:00 PM76.6 °F54.3 °F46 %30.14 inNNE (20°)11.5 mph21.9 mph
5:00 PM75.6 °F50.4 °F41 %30.15 inNNE (30°)11.5 mph18.4 mph
6:00 PM74.5 °F51.8 °F45 %30.17 inNE (40°)6.9 mph
7:00 PM71.8 °F50.0 °F46 %30.17 inNE (50°)6.9 mph
8:00 PM69.4 °F50.7 °F51 %30.17 inENE (70°)4.6 mph
9:00 PM66.0 °F51.0 °F48 %30.18 inENE (70°)3.5 mph
9:00 PM66.2 °F51.1 °F58 %30.18 inENE (70°)3.5 mph
10:00 PM63.0 °F50.9 °F65 %30.19 inEast (90°)5.8 mph
11:00 PM61.3 °F50.2 °F67 %30.20 inESE (110°)5.8 mph
Hourly data recorded from CXNP, located miles away from Amherst, Nova Scotia







STORIES FROM OUR PARTNERS